WESTFORD NEEDLES, 602

Orbit data source: Space-Track

WESTFORD NEEDLES, 602 is space debris in LEO originally from a launch on Thu, 09 May 1963 UTC launched from the Air Force Western Test Range (AFWTR). Debris objects in space refer to the collection of defunct objects orbiting the Earth. Examples of debris include non-operational satellites, rocket bodies, and fragments generated from explosions, collisions, or faulty payload assembly.

Loading next visibility...
WESTFORD NEEDLES details
Identifier
602, 1963-014E
Orbit
LEO
Last TLE update1 day ago
Origin
Flag of USUSAF SSD (US)
ManufacturerUnknown
MissionSpacecraft
Bus & MotorUnknown
Mass~10 kg wet, ~10 kg dry
Launch date (UTC)
1963-05-09 (62 years ago)
Launch vehicleUnknown
Launch site
Air Force Western Test Range (AFWTR)
Object type
Payload
Rocket body
Debris
Shape & HBRBox, 1.5 m
Radar Cross Section1.575 m², Medium (>0.1 m² and < 1m²)

Expand to show TLE details & history

TLE from 1 day ago
0 WESTFORD NEEDLES
1 00602U 63014E   25023.98976094  .00000005  00000-0  10355-2 0  9997
2 00602  87.3266 238.0166 0034995 189.2680 170.7533  8.67235202953695
Epoch: 2025-01-23T23:45Z
Definitive object data (Epoch: 2025-01-23T23:45:15.345Z)
Latitude0.00003°
Longitude118.1433°
Altitude3,665.778 km
Speed6.289 km/s
True Right ascension15h 52m 03s
True Declination0° 00' 00"
Sunlit
Object was in daylight at TLE epoch
Visualization TLE readout
Latitude-30.46932°
Longitude-60.38379°
Altitude3,607.424 km
Speed6.329 km/s
Apparent Right ascension06h 14m 55s
Apparent Declination-54° 55' 39"
Sunlit
Object is in daylight
Visualization observer readout
Local Sidereal Time00:48:40
Azimuth140.184° SSE
Elevation-27.419°
Doppler factor1
Orbital elements
Apogee altitude3,661.85 km
Perigee altitude3,591.825 km
Semi-major axis10,004.974 km
Eccentricity0.0034995
Inclination87.3266°
RAAN238.0166°
Arg. of periapsis189.268°
True anomaly170.81746°
Mean anomaly170.7533°
Eccentric anomaly170.78541°
Mean motion2.1688 °/min
BSTAR0.0010355
Orbital period165.99 mins
Loading maneuver chart data...

WESTFORD NEEDLES Visibility forecast

Observer location: undefined°, undefined

Span
Click to sort rows by Start time (UTC) header in descending order
Start Az.
Max El. time (UTC)
Max El. Az.
Max El.
End time (UTC)
End Az.
37 mins2025-01-25 01:26:00.545Z0.14° NNE2025-01-25 01:45:00.545Z88.864° E43.093°2025-01-25 02:03:00.545Z168.114° S
28 mins2025-01-25 04:15:00.545Z345.56° N2025-01-25 04:29:00.545Z290.835° WNW29.589°2025-01-25 04:43:00.545Z237.375° WSW
26 mins2025-01-25 11:54:00.545Z107.367° ESE2025-01-25 12:07:00.545Z59.929° ENE23.828°2025-01-25 12:20:00.545Z14.544° NNE
36 mins2025-01-25 14:32:00.545Z180.063° SSW2025-01-25 14:49:00.545Z259.004° W44.899°2025-01-25 15:08:00.545Z1.708° NNE
24 mins2025-01-25 17:28:00.545Z259.851° W2025-01-25 17:40:00.545Z303.266° NW20.073°2025-01-25 17:52:00.545Z345.918° N
|